Regional Weather Roundup
Issued by NWS

Home | Current Version | Previous Version | Graphics & Text | Print | Product List | Glossary On
Versions: 1 2 3 4 5 6 7 8 9 10 11 12 13 14 15 16 17 18 19 20 21 22 23 24 25 26 27 28 29 30 31 32 33 34 35 36 37 38 39 40 41 42 43 44 45 46 47 48 49 50
489
ASUS43 KOAX 110710
RWRNE

WEATHER ROUNDUP FOR NEBRASKA
NATIONAL WEATHER SERVICE OMAHA NE
100 AM CST SUN DEC 11 2016

NOTES: SATELLITE DATA IS BEING USED TO AUGMENT CLOUD COVER ABOVE
       12000 FEET.
       "FAIR" INDICATES FEW OR NO CLOUDS BELOW 12,000 FEET WITH NO
       SIGNIFICANT WEATHER AND/OR OBSTRUCTIONS TO VISIBILITY.

  * THESE STATIONS DO NOT REPORT WEATHER SUCH AS RAIN...SNOW OR FOG.

NEZ001>004-019>022-054>056-110800-
NEBRASKA PANHANDLE

CITY           SKY/WX    TMP DP  RH WIND       PRES   REMARKS
SCOTTSBLUFF    CLOUDY    35  22  58 N23G32    29.73R WCI  23
ALLIANCE       CLOUDY    12   7  80 N10       29.74R WCI  -1
CHADRON        CLOUDY     8   3  80 SW8       29.80F WCI  -4
KIMBALL        LGT RAIN  39  32  76 NW22G32   29.73R WCI  28
SIDNEY         CLOUDY    43  29  57 NW12      29.69R
$$

NEZ057>060-069>072-079>082-110800-
SOUTHWEST NEBRASKA

CITY           SKY/WX    TMP DP  RH WIND       PRES   REMARKS
NORTH PLATTE   CLEAR     26  23  88 S3        29.67F
IMPERIAL       CLOUDY    26  23  88 NW3       29.66S
LEXINGTON      CLOUDY    25  21  86 S5        29.68F WCI  19
MCCOOK         CLOUDY    23  21  92 CALM      29.67F
OGALLALA       CLOUDY    30  26  86 SW3       29.66S
$$

NEZ005>010-023>029-035>040-094-110800-
NORTH CENTRAL NEBRASKA

CITY           SKY/WX    TMP DP  RH WIND       PRES   REMARKS
VALENTINE      CLOUDY    14  11  87 NW9       29.72S FOG     WCI   2
AINSWORTH      CLOUDY    17  17  98 CALM      29.66F
BROKEN BOW     CLOUDY    24  21  88 S7        29.66F WCI  16
O`NEILL        CLOUDY    23  19  86 SE7       29.70F WCI  14
ORD            CLOUDY    24  18  77 SE5       29.68F WCI  18
THEDFORD       PTCLDY    27  24  89 NW10G16   29.68R WCI  17
$$

NEZ041-046>049-061>064-073>077-083>087-110800-
SOUTH CENTRAL NEBRASKA

CITY           SKY/WX    TMP DP  RH WIND       PRES   REMARKS
GRAND ISLAND   CLOUDY    28  22  78 S9        29.72F WCI  19
AURORA         CLOUDY    28  21  77 SE8       29.72F WCI  19
HASTINGS       CLOUDY    28  22  78 SE8       29.72F WCI  20
HEBRON         MOCLDY    30  23  74 SE8       29.75F WCI  22
HOLDREGE       CLOUDY    26  22  85 S6        29.68F WCI  19
KEARNEY *      CLOUDY    25  18  74 CALM      29.70F
YORK           CLOUDY    28  23  80 SE9       29.75F WCI  20
$$

NEZ011>018-030>034-042>045-110800-
NORTHEAST NEBRASKA

CITY           SKY/WX    TMP DP  RH WIND       PRES   REMARKS
NORFOLK        CLOUDY    25  19  78 SE9       29.75F WCI  15
ALBION         CLOUDY    25  19  80 SE7       29.72F WCI  17
BLAIR          CLOUDY    32  22  67 SE12G17   29.81F WCI  23
FREMONT        CLOUDY    31  22  69 SE12      29.80F WCI  22
TEKAMAH        CLOUDY    28  21  75 SE14      29.82F WCI  17
WAYNE          CLOUDY    25  21  84 E6        29.81R WCI  18
$$

NEZ050>053-065>068-078-088>093-110800-
SOUTHEAST NEBRASKA

CITY           SKY/WX    TMP DP  RH WIND       PRES   REMARKS
LINCOLN        CLOUDY    32  21  64 SE8       29.81F WCI  25
OMAHA EPPLEY   CLOUDY    31  19  61 SE14      29.84F WCI  21
BEATRICE       CLOUDY    33  23  67 SE7       29.80S WCI  26
FALLS CITY     CLOUDY    35  21  56 SE14      29.83F WCI  26
NEBRASKA CITY  MOCLDY    32  17  54 SE7       29.84F WCI  26
PLATTSMOUTH    MOCLDY    32  18  55 SE12G18   29.82F WCI  23
$$

NEZ044-045-051>053-067-110800-
OMAHA AREA

CITY           SKY/WX    TMP DP  RH WIND       PRES   REMARKS
OMAHA EPPLEY   CLOUDY    31  19  61 SE14      29.84F WCI  21
BLAIR          CLOUDY    32  22  67 SE12G17   29.81F WCI  23
FREMONT        CLOUDY    31  22  69 SE12      29.80F WCI  22
MILLARD        CLOUDY    33  23  66 SE7       29.83F WCI  27
OFFUTT AFB     CLOUDY    31  21  65 E10       29.83F WCI  22
PLATTSMOUTH    MOCLDY    32  18  55 SE12G18   29.82F WCI  23
WAHOO          FAIR      30  22  71 SE10      29.80F WCI  21
$$




USA.gov is the U.S. government's official web portal to all federal, state and local government web resources and services.